This is the latest recevied weather packets stored in our database for station/object KD4KKF. If no packets are shown the sender has not sent any weather packets the latest 10 day(s).
| Time | Temp. | Humidity | Pressure | Rain* | Wind** | Luminosity | Snow |
|---|---|---|---|---|---|---|---|
| 1777932562 | 26.67° C | 44% | 1011.4 hPa | 0 mm | - | 327 W/m² | - |
| 1777932259 | 26.11° C | 46% | 1011.6 hPa | 0 mm | - | 364 W/m² | - |
| 1777931956 | 26.11° C | 44% | 1011.4 hPa | 0 mm | - | 319 W/m² | - |
| 1777931653 | 25.56° C | 46% | 1011.5 hPa | 0 mm | - | 315 W/m² | - |
| 1777931349 | 26.11° C | 45% | 1011.6 hPa | 0 mm | - | 98 W/m² | - |
| 1777931046 | 26.11° C | 46% | 1011.5 hPa | 0 mm | - | 425 W/m² | - |
| 1777930742 | 26.11° C | 46% | 1011.5 hPa | 0 mm | - | 480 W/m² | - |
| 1777930438 | 26.67° C | 45% | 1011.8 hPa | 0 mm | - | 259 W/m² | - |
| 1777930136 | 26.67° C | 45% | 1011.7 hPa | 0 mm | - | 494 W/m² | - |
| 1777929831 | 26.11° C | 45% | 1011.7 hPa | 0 mm | - | 504 W/m² | - |
| 1777929530 | 26.67° C | 45% | 1011.9 hPa | 0 mm | - | 544 W/m² | - |
| 1777929225 | 26.11° C | 43% | 1011.9 hPa | 0 mm | - | 547 W/m² | - |
| 1777928923 | 26.11° C | 45% | 1011.9 hPa | 0 mm | - | 557 W/m² | - |
| 1777928620 | 26.11° C | 44% | 1012.1 hPa | 0 mm | - | 560 W/m² | - |
| 1777928317 | 26.67° C | 43% | 1012 hPa | 0 mm | - | 575 W/m² | - |
| 1777928015 | 26.67° C | 44% | 1011.9 hPa | 0 mm | - | 622 W/m² | - |
| 1777927713 | 26.67° C | 44% | 1012.1 hPa | 0 mm | - | 636 W/m² | - |
| 1777927411 | 26.67° C | 45% | 1012.3 hPa | 0 mm | - | 639 W/m² | - |
| 1777927110 | 26.11° C | 45% | 1012.2 hPa | 0 mm | - | 665 W/m² | - |
| 1777926806 | 26.11° C | 46% | 1012 hPa | 0 mm | - | 691 W/m² | - |
| 1777926502 | 26.11° C | 44% | 1012.3 hPa | 0 mm | - | 710 W/m² | - |
| 1777926200 | 26.67° C | 43% | 1012.6 hPa | 0 mm | - | 716 W/m² | - |
| 1777925896 | 26.11° C | 45% | 1012.6 hPa | 0 mm | - | 704 W/m² | - |
| 1777925594 | 25.56° C | 46% | 1012.8 hPa | 0 mm | - | 728 W/m² | - |
| 1777925291 | 25° C | 47% | 1012.8 hPa | 0 mm | - | 220 W/m² | - |
* Rain latest hour (hover to see other rain measurements)
** Current wind speed in m/s (hover to see current wind gust speed)